This is the latest recevied weather packets stored in our database for station/object WX1N. If no packets are shown the sender has not sent any weather packets the latest 1 day(s).
| Time | Temp. | Humidity | Pressure | Rain* | Wind** | Luminosity | Snow |
|---|---|---|---|---|---|---|---|
| 1778079003 | 16.67° C | 82% | 1006.7 hPa | 0 mm | - | - | - |
| 1778078403 | 16.67° C | 81% | 1006.5 hPa | 0 mm | - | - | - |
| 1778077503 | 16.67° C | 81% | 1006.2 hPa | 0 mm | - | - | - |
| 1778074203 | 16.11° C | 83% | 1006.4 hPa | 0 mm | - | - | - |
| 1778071503 | 15.56° C | 85% | 1007.2 hPa | 0 mm | - | - | - |
| 1778070903 | 15° C | 85% | 1007.3 hPa | 0 mm | - | - | - |
| 1778068203 | 15° C | 85% | 1006.9 hPa | 0 mm | - | - | - |
| 1778064603 | 10.56° C | 78% | 1007 hPa | 0 mm | - | - | - |
| 1778064003 | 10° C | 79% | 1007 hPa | 0 mm | - | - | - |
| 1778063103 | 10° C | 82% | 1007.1 hPa | 0 mm | - | - | - |
| 1778062503 | 10° C | 82% | 1007.1 hPa | 0 mm | - | - | - |
| 1778061003 | 10° C | 83% | 1007.3 hPa | 0 mm | - | - | - |
| 1778060103 | 10.56° C | 86% | 1007 hPa | 0 mm | - | - | - |
| 1778059503 | 10.56° C | 84% | 1007 hPa | 0 mm | - | - | - |
| 1778057403 | 11.11° C | 87% | 1007 hPa | 0 mm | - | - | - |
| 1778056503 | 11.67° C | 87% | 1007.2 hPa | 0 mm | - | - | - |
| 1778055303 | 11.67° C | 87% | 1007.4 hPa | 0 mm | - | - | - |
| 1778054403 | 12.22° C | 87% | 1007.4 hPa | 0 mm | - | - | - |
| 1778052903 | 13.33° C | 84% | 1007.5 hPa | 0 mm | - | - | - |
| 1778052304 | 13.89° C | 84% | 1007.4 hPa | 0 mm | - | - | - |
| 1778050203 | 15° C | 79% | 1007.2 hPa | 0 mm | - | - | - |
| 1778049604 | 15.56° C | 79% | 1007 hPa | 0 mm | - | - | - |
| 1778048703 | 15° C | 80% | 1007.1 hPa | 0 mm | - | - | - |
| 1778048404 | 15° C | 80% | 1007.1 hPa | 0 mm | - | - | - |
| 1778048103 | 15° C | 80% | 1007 hPa | 0 mm | - | - | - |
* Rain latest hour (hover to see other rain measurements)
** Current wind speed in m/s (hover to see current wind gust speed)